Location: Hains Lake
(37.8540°N, 99.8578°W)
Time: 02:04:51
(UTC+00:00)

Vanguard 1 - Pass Details

Date: 10 December 2021
Orbit: 652 x 3830 km, 34.2° (Epoch: 21 January)

Event Time Altitude Azimuth Distance (km) Brightness Sun altitude
Rises 04:24:11 0° 232° (SW) 6,017 14.3 -58.8°
Reaches altitude 10° 04:27:35 10° 229° (SW) 5,351 13.9 -59.5°
Enters shadow 04:33:35 30° 220° (SW) 4,399 13.2 -60.6°
